Regional Weather Roundup
Issued by NWS

Home | Current Version | Previous Version | Graphics & Text | Print | Product List | Glossary On
Versions: 1 2 3 4 5 6 7 8 9 10 11 12 13 14 15 16 17 18 19 20 21 22 23 24 25 26 27 28 29 30 31 32 33 34 35 36 37 38 39 40 41 42 43 44 45 46 47 48 49 50
000
ASUS43 KDTX 210810
RWRMI
MICHIGAN HOURLY REGIONAL WEATHER ROUNDUP
NATIONAL WEATHER SERVICE DETROIT/PONTIAC MI
400 AM EDT MON APR 21 2014

NOTE: "FAIR" INDICATES FEW OR NO CLOUDS BELOW 12,000 FEET WITH NO
SIGNIFICANT WEATHER AND/OR OBSTRUCTION TO VISIBILITY.

MIZ047>049-052>055-059>063-066>070-074>076-081>083-210900-
SOUTHEAST LOWER MICHIGAN

CITY           SKY/WX    TMP DP  RH WIND       PRES   REMARKS
ADRIAN         CLEAR     42  37  82 CALM      30.06F
ALMA           MOCLDY    56  33  41 S7        30.01S
ANN ARBOR      CLEAR     39  33  79 CALM      30.05F
BAD AXE        CLOUDY    53  40  63 S8        30.03F
CARO           CLOUDY    57  37  47 S3        30.02F
DETROIT CITY   CLEAR     49  33  54 CALM      30.06F
DETROIT        MOCLDY    47  36  65 CALM      30.06F
FLINT          MOCLDY    52  38  58 S6        30.03F
GROSSE ILE     CLEAR     45  39  81 CALM      30.04F
HILLSDALE      CLEAR     49  35  58 CALM      30.05F
HOWELL         PTCLDY    47  33  59 SE3       30.04F

CITY           SKY/WX    TMP DP  RH WIND       PRES   REMARKS
JACKSON        CLEAR     48  36  63 SE3       30.04F
LAMBERTVILLE   CLEAR     45  37  76 CALM      30.06S
LANSING        PTCLDY    54  32  43 S6        30.03F
LAPEER         PTSUNNY   49  38  65 CALM      30.04F
MASON          PTCLDY    50  37  61 S3        30.04S
MONROE         CLEAR     41  39  93 N3        30.04F
MT. CLEMENS    CLEAR     41  40  95 CALM      30.05F
PONTIAC        CLEAR     47  33  58 CALM      30.05F
PORT HOPE        N/A     46  42  86 SE6       30.00F
PORT HURON     PTCLDY    39  36  87 CALM      30.06F
TRI CITIES     CLOUDY    58  34  40 S8        30.02F
TROY           CLEAR     47  34  59 CALM      30.07S
SAGINAW HB     CLOUDY    55  36  47 S6        30.01F
YPSILANTI      CLEAR     44  35  70 NE3       30.06F
$$
MIZ043>046-050>051-056>058-064>065-071>073-077>080-210900-
SOUTHWEST LOWER MICHIGAN

CITY           SKY/WX    TMP DP  RH WIND       PRES   REMARKS
BATTLE CREEK   CLEAR     53  33  46 S3        30.04F
BENTON HARBOR  CLOUDY    59  32  36 S5        30.02F
BIG RAPIDS     MOCLDY    56  37  47 SE3       29.99S
COLDWATER      CLEAR     45  40  82 CALM      30.04S
FREMONT        FAIR      57  36  44 S5        29.98F
HOLLAND        MOCLDY    61  35  37 S9        30.01F
GRAND RAPIDS   PTCLDY    57  33  40 S8        30.01F
IONIA          FAIR      53  34  49 S3        30.00F
KALAMAZOO      PTCLDY    53  38  56 S6        30.04F
LUDINGTON      MOCLDY    64  35  34 SW16G25   29.95F
MARSHALL       CLEAR     44  36  74 CALM      30.03F
MOUNT PLEASANT MOCLDY    59  33  37 CALM      30.00S
MUSKEGON       MOCLDY    65  30  27 S17       29.99F
SOUTH HAVEN    MOCLDY    58  32  37 S5        30.02S
$$
MIZ016>042-210900-
NORTHERN LOWER MICHIGAN

CITY           SKY/WX    TMP DP  RH WIND       PRES   REMARKS
ALPENA         CLOUDY    46  39  76 N3        30.01F
BEAVER ISLAND  CLOUDY    42  41  96 CALM      29.97S FOG
BELLAIRE       CLOUDY    48  43  81 CALM      29.97F
CADILLAC       PTCLDY    54  39  56 CALM      29.97F
CHARLEVOIX     CLOUDY    46  43  92 E5        30.00F
FRANKFORT      CLOUDY    46  42  83 CALM      29.96F
GAYLORD        CLOUDY    50  43  77 NE5       29.98F
GRAYLING       CLOUDY    49  45  84 CALM      29.99S
HARBOR SPRINGS CLOUDY    43  41  94 E6        29.98F FOG
HOUGHTON LAKE  CLOUDY    51  48  89 CALM      29.99F
MANISTEE       MOCLDY    48  36  61 CALM      29.97S
OSCODA         CLOUDY    50  46  86 CALM      29.99F
PELLSTON       CLOUDY    42  40  92 S7        30.00F FOG
ROGERS CITY    LGT RAIN  41  38  87 S3        30.01F
TRAVERSE CITY  MOCLDY    42  35  76 CALM      29.96F
$$
MIZ007>008-015-210900-
EASTERN UPPER MICHIGAN

CITY           SKY/WX    TMP DP  RH WIND       PRES   REMARKS
KINROSS        CLOUDY    34  34 100 CALM      29.99S VSB<1/4
MACKINAC ISLAN CLOUDY    43  43 100 S9        29.97F FOG
NEWBERRY       CLOUDY    33  32  99 S8        29.98S FOG     WCI  25
S. S. MARIE    FOG       37  36  96 E3        29.98F VSB 1/4
MUNISING         N/A     34  31  88 S3        29.96S
$$
MIZ004>006-011>014-085-210900-
CENTRAL UPPER MICHIGAN

CITY           SKY/WX    TMP DP  RH WIND       PRES   REMARKS
MANISTIQUE     CLOUDY    35  34  96 MISG      29.97F FOG
ESCANABA       CLOUDY    37  36  93 CALM      29.95F VSB<1/4
MENOMINEE      CLOUDY    41  39  93 SE5       29.93F
SAWYER-GWINN   FOG       32  32  99 CALM      29.95F VSB 3/4
$$
MIZ001>003-009>011-084-210900-
WESTERN UPPER MICHIGAN

CITY           SKY/WX    TMP DP  RH WIND       PRES   REMARKS
IRON MOUNTAIN  FOG       41  41 100 NW3       29.95F VSB 1/4
HOUGHTON       CLEAR     34  27  75 CALM      29.94F
COPPER HARBOR    N/A     34  31  88 W3        29.95F
IRONWOOD       PTCLDY    34  28  80 CALM      29.92F
$$

ABBREVIATIONS USED IN REMARKS
   TC - TEMPERATURE IN CELSIUS
  WCI - WIND CHILL INDEX
   HX - HEAT INDEX
  VSB - VISIBILITY




USA.gov is the U.S. government's official web portal to all federal, state and local government web resources and services.